STARLINK-2087

Last updated on April 24, 2021, 12:02 a.m. UTC

1 47977U 21024A   21113.25001157 -.01178568  00000-0 -18934-1 0  9996
2 47977  53.0466  56.1794 0001152  78.2703 202.9235 15.55381036  1818
UTC
Height (km)
Latitude
Longitude
Inclination
Orbital Period
UTC large
Height (km)
Speed (km/s)
/
Latitude / Longitude
Inclination (degrees)
Orbital Period (minutes)
Azimuth
Elevation
Range (km)
Doppler Factor
iOS Compass Heading
iOS Angle

Next 30 passes for location: Hong Kong

Rise time Rise Azimuth (degrees) Set time Set Azimuth (degrees) Duration Max altitude (degrees)

No matching passes for this satellites